AAY1189 KMYR-KCAK

Flight info

Callsign AAY1189
Flight time 1h 19m
Altitude 38000
Route ADEPT HVQ SPOCC HUUVR1
Aircraft A319/M-SDE3FGHIRWY/LB1

Departure

Time 2026-05-03 22:37
Airport Myrtle Beach International Airport (KMYR)

Arrival

Time 2026-05-03 23:57
Airport Akron Canton Regional Airport (KCAK)
Time Latitude Longitude Altitude Speed Heading
2026-05-03 22:06 33.67993 -78.92386 32 ft 0 kts 353°
2026-05-03 22:25 33.67979 -78.92385 31 ft 4 kts 354°
2026-05-03 22:25 33.67952 -78.92381 32 ft 4 kts 351°
2026-05-03 22:25 33.67927 -78.92372 32 ft 4 kts 320°
2026-05-03 22:26 33.67916 -78.92349 32 ft 3 kts 262°
2026-05-03 22:26 33.67916 -78.92344 32 ft 0 kts 258°
2026-05-03 22:27 33.67916 -78.92345 32 ft 0 kts 258°
2026-05-03 22:28 33.67915 -78.92350 32 ft 1 kts 258°
2026-05-03 22:28 33.67913 -78.92363 32 ft 2 kts 258°
2026-05-03 22:28 33.67909 -78.92383 32 ft 3 kts 258°
2026-05-03 22:28 33.67905 -78.92410 32 ft 4 kts 258°
2026-05-03 22:29 33.67898 -78.92445 32 ft 5 kts 258°
2026-05-03 22:29 33.67897 -78.92490 32 ft 7 kts 281°
2026-05-03 22:29 33.67934 -78.92535 32 ft 8 kts 338°
2026-05-03 22:29 33.67993 -78.92553 32 ft 9 kts 347°
2026-05-03 22:30 33.68057 -78.92570 32 ft 10 kts 347°
2026-05-03 22:30 33.68102 -78.92582 32 ft 10 kts 347°
2026-05-03 22:30 33.68166 -78.92620 32 ft 11 kts 312°
2026-05-03 22:30 33.68220 -78.92685 32 ft 12 kts 332°
2026-05-03 22:31 33.68311 -78.92716 32 ft 14 kts 347°
2026-05-03 22:31 33.68410 -78.92741 31 ft 15 kts 348°
2026-05-03 22:31 33.68512 -78.92767 31 ft 15 kts 348°
2026-05-03 22:31 33.68617 -78.92793 32 ft 16 kts 348°
2026-05-03 22:32 33.68726 -78.92820 33 ft 16 kts 348°
2026-05-03 22:32 33.68834 -78.92847 31 ft 16 kts 348°
2026-05-03 22:32 33.68944 -78.92867 32 ft 16 kts
2026-05-03 22:32 33.69057 -78.92859 33 ft 16 kts 352°
2026-05-03 22:33 33.69169 -78.92884 31 ft 17 kts 348°
2026-05-03 22:33 33.69266 -78.92915 31 ft 10 kts 330°
2026-05-03 22:33 33.69269 -78.92995 33 ft 10 kts 255°
2026-05-03 22:33 33.69261 -78.93034 33 ft 0 kts 257°
2026-05-03 22:35 33.69258 -78.93050 33 ft 3 kts 257°
2026-05-03 22:36 33.69251 -78.93087 33 ft 6 kts 257°
2026-05-03 22:36 33.69232 -78.93140 32 ft 8 kts 218°
2026-05-03 22:36 33.69178 -78.93133 34 ft 8 kts 167°
2026-05-03 22:36 33.69122 -78.93118 35 ft 9 kts 168°
2026-05-03 22:37 33.68927 -78.93067 35 ft 65 kts 168°
2026-05-03 22:37 33.68238 -78.92901 31 ft 133 kts 168°
2026-05-03 22:37 33.67222 -78.92648 422 ft 149 kts 169°
2026-05-03 22:37 33.66213 -78.92378 1152 ft 149 kts 168°
2026-05-03 22:38 33.65211 -78.92073 1872 ft 150 kts 167°
2026-05-03 22:38 33.64336 -78.91467 2502 ft 152 kts 127°
2026-05-03 22:38 33.64085 -78.90220 2940 ft 167 kts 88°
2026-05-03 22:38 33.64419 -78.88817 3346 ft 183 kts 60°
2026-05-03 22:39 33.65277 -78.87642 3801 ft 194 kts 31°
2026-05-03 22:39 33.66593 -78.87216 4158 ft 209 kts 352°
2026-05-03 22:39 33.67953 -78.87992 4511 ft 232 kts 317°
2026-05-03 22:39 33.69147 -78.89439 5061 ft 253 kts 314°
2026-05-03 22:40 33.70387 -78.90983 5944 ft 259 kts 314°
2026-05-03 22:40 33.71652 -78.92555 6917 ft 263 kts 314°
2026-05-03 22:40 33.72934 -78.94139 7878 ft 266 kts 314°
2026-05-03 22:40 33.74237 -78.95739 8813 ft 270 kts 313°
2026-05-03 22:41 33.75558 -78.97359 9736 ft 272 kts 313°
2026-05-03 22:41 33.76909 -78.99016 10385 ft 287 kts 312°
2026-05-03 22:41 33.78361 -79.00799 10716 ft 310 kts 312°
2026-05-03 22:41 33.79925 -79.02720 10981 ft 333 kts 312°
2026-05-03 22:42 33.81569 -79.04737 11397 ft 347 kts 312°
2026-05-03 22:42 33.83276 -79.06825 12090 ft 353 kts 312°
2026-05-03 22:42 33.85005 -79.08940 12857 ft 355 kts 311°
2026-05-03 22:42 33.86741 -79.11069 13606 ft 358 kts 311°
2026-05-03 22:43 33.88493 -79.13217 14317 ft 361 kts 311°
2026-05-03 22:43 33.90258 -79.15382 15004 ft 364 kts 311°
2026-05-03 22:43 33.92038 -79.17565 15691 ft 367 kts 311°
2026-05-03 22:43 33.93830 -79.19763 16366 ft 369 kts 310°
2026-05-03 22:44 33.95633 -79.21981 16979 ft 372 kts 310°
2026-05-03 22:44 33.97450 -79.24218 17608 ft 375 kts 310°
2026-05-03 22:44 33.99280 -79.26473 18231 ft 378 kts 310°
2026-05-03 22:44 34.01124 -79.28748 18830 ft 380 kts 310°
2026-05-03 22:45 34.02982 -79.31039 19399 ft 383 kts 310°
2026-05-03 22:45 34.04850 -79.33345 19946 ft 385 kts 310°
2026-05-03 22:45 34.06731 -79.35668 20455 ft 388 kts 310°
2026-05-03 22:45 34.08604 -79.37979 20950 ft 391 kts 310°
2026-05-03 22:46 34.10515 -79.40336 21423 ft 394 kts 309°
2026-05-03 22:46 34.12437 -79.42716 21890 ft 397 kts 309°
2026-05-03 22:46 34.14366 -79.45110 22335 ft 399 kts 309°
2026-05-03 22:46 34.16315 -79.47525 22765 ft 402 kts 309°
2026-05-03 22:47 34.18277 -79.49951 23176 ft 405 kts 309°
2026-05-03 22:47 34.20251 -79.52392 23577 ft 408 kts 309°
2026-05-03 22:47 34.22239 -79.54860 23974 ft 410 kts 309°
2026-05-03 22:47 34.24233 -79.57342 24359 ft 413 kts 309°
2026-05-03 22:48 34.26242 -79.59846 24760 ft 415 kts 309°
2026-05-03 22:48 34.28258 -79.62360 25152 ft 416 kts 308°
2026-05-03 22:48 34.30277 -79.64875 25534 ft 418 kts 308°
2026-05-03 22:48 34.32308 -79.67401 25898 ft 419 kts 308°
2026-05-03 22:49 34.34320 -79.69905 26276 ft 420 kts 308°
2026-05-03 22:49 34.36359 -79.72447 26631 ft 421 kts 308°
2026-05-03 22:49 34.38402 -79.74998 26986 ft 422 kts 308°
2026-05-03 22:49 34.40445 -79.77549 27327 ft 423 kts 308°
2026-05-03 22:50 34.42493 -79.80113 27669 ft 424 kts 308°
2026-05-03 22:50 34.44540 -79.82676 28115 ft 421 kts 307°
2026-05-03 22:50 34.46573 -79.85218 28582 ft 418 kts 307°
2026-05-03 22:50 34.48592 -79.87746 29043 ft 416 kts 307°
2026-05-03 22:51 34.50595 -79.90255 29522 ft 412 kts 307°
2026-05-03 22:51 34.52587 -79.92746 29997 ft 410 kts 307°
2026-05-03 22:51 34.54564 -79.95225 30482 ft 407 kts 306°
2026-05-03 22:51 34.56531 -79.97695 30926 ft 406 kts 306°
2026-05-03 22:52 34.58490 -80.00156 31346 ft 405 kts 306°
2026-05-03 22:52 34.60439 -80.02612 31742 ft 404 kts 306°
2026-05-03 22:52 34.62363 -80.05045 32129 ft 404 kts 306°
2026-05-03 22:52 34.64301 -80.07500 32535 ft 402 kts 306°
2026-05-03 22:53 34.66238 -80.09952 32955 ft 401 kts 305°
2026-05-03 22:53 34.68168 -80.12389 33356 ft 400 kts 305°
2026-05-03 22:53 34.70281 -80.14641 33727 ft 410 kts 315°
2026-05-03 22:53 34.72789 -80.16418 34070 ft 425 kts 325°
2026-05-03 22:54 34.75599 -80.17680 34441 ft 432 kts 330°
2026-05-03 22:54 34.78444 -80.18859 34778 ft 432 kts 330°
2026-05-03 22:54 34.81287 -80.20044 35116 ft 431 kts 329°
2026-05-03 22:54 34.84131 -80.21239 35441 ft 431 kts 329°
2026-05-03 22:55 34.86957 -80.22436 35748 ft 430 kts 329°
2026-05-03 22:55 34.89792 -80.23641 36043 ft 430 kts 329°
2026-05-03 22:55 34.92620 -80.24846 36316 ft 430 kts 329°
2026-05-03 22:55 34.95446 -80.26051 36581 ft 431 kts 329°
2026-05-03 22:56 34.98238 -80.27240 36849 ft 430 kts 328°
2026-05-03 22:56 35.01064 -80.28441 37129 ft 429 kts 328°
2026-05-03 22:56 35.03881 -80.29637 37413 ft 428 kts 328°
2026-05-03 22:56 35.06692 -80.30829 37711 ft 427 kts 328°
2026-05-03 22:57 35.09501 -80.32020 37979 ft 426 kts 328°
2026-05-03 22:57 35.12299 -80.33209 38083 ft 426 kts 328°
2026-05-03 22:57 35.15108 -80.34411 38100 ft 428 kts 328°
2026-05-03 22:58 35.20734 -80.36824 38105 ft 428 kts 328°
2026-05-03 22:58 35.26324 -80.39210 38109 ft 428 kts 328°
2026-05-03 22:59 35.31943 -80.41615 38109 ft 428 kts 328°
2026-05-03 22:59 35.37576 -80.44030 38116 ft 428 kts 328°
2026-05-03 23:00 35.43193 -80.46438 38122 ft 428 kts 328°
2026-05-03 23:00 35.48811 -80.48852 38119 ft 427 kts 328°
2026-05-03 23:01 35.54418 -80.51266 38113 ft 427 kts 329°
2026-05-03 23:01 35.59992 -80.53674 38111 ft 426 kts 329°
2026-05-03 23:02 35.65589 -80.56092 38105 ft 426 kts 328°
2026-05-03 23:02 35.71177 -80.58522 38097 ft 426 kts 328°
2026-05-03 23:03 35.76766 -80.60943 38098 ft 426 kts 329°
2026-05-03 23:03 35.82354 -80.63366 38095 ft 426 kts 329°
2026-05-03 23:04 35.87940 -80.65789 38091 ft 426 kts 329°
2026-05-03 23:04 35.93529 -80.68220 38091 ft 426 kts 329°
2026-05-03 23:05 35.99115 -80.70656 38092 ft 426 kts 329°
2026-05-03 23:05 36.04705 -80.73099 38102 ft 425 kts 329°
2026-05-03 23:06 36.10242 -80.75515 38106 ft 424 kts 329°
2026-05-03 23:06 36.15804 -80.77949 38108 ft 424 kts 329°
2026-05-03 23:07 36.21374 -80.80391 38105 ft 424 kts 329°
2026-05-03 23:07 36.26941 -80.82839 38110 ft 424 kts 329°
2026-05-03 23:08 36.32499 -80.85292 38110 ft 424 kts 329°
2026-05-03 23:08 36.38057 -80.87744 38114 ft 424 kts 329°
2026-05-03 23:09 36.43581 -80.90174 38116 ft 423 kts 330°
2026-05-03 23:09 36.49128 -80.92621 38113 ft 423 kts 330°
2026-05-03 23:10 36.54685 -80.95077 38106 ft 423 kts 330°
2026-05-03 23:10 36.60239 -80.97539 38102 ft 423 kts 330°
2026-05-03 23:11 36.65784 -80.99999 38099 ft 423 kts 330°
2026-05-03 23:11 36.71300 -81.02457 38095 ft 424 kts 330°
2026-05-03 23:12 36.76855 -81.04932 38096 ft 424 kts 330°
2026-05-03 23:12 36.82410 -81.07403 38101 ft 423 kts 330°
2026-05-03 23:13 36.87953 -81.09877 38100 ft 422 kts 330°
2026-05-03 23:13 36.93491 -81.12366 38105 ft 422 kts 330°
2026-05-03 23:14 36.99019 -81.14843 38106 ft 422 kts 330°
2026-05-03 23:14 37.04546 -81.17316 38103 ft 422 kts 330°
2026-05-03 23:15 37.10036 -81.19781 38100 ft 422 kts 330°
2026-05-03 23:15 37.15556 -81.22269 38102 ft 422 kts 330°
2026-05-03 23:16 37.21086 -81.24758 38101 ft 422 kts 330°
2026-05-03 23:16 37.26614 -81.27253 38099 ft 422 kts 330°
2026-05-03 23:17 37.31210 -81.29340 38098 ft 422 kts 330°
2026-05-03 23:17 37.37642 -81.32257 38092 ft 422 kts 330°
2026-05-03 23:18 37.43163 -81.34748 38095 ft 421 kts 330°
2026-05-03 23:18 37.47754 -81.36824 38102 ft 421 kts 330°
2026-05-03 23:19 37.53265 -81.39347 38101 ft 421 kts 330°
2026-05-03 23:19 37.58770 -81.41860 38106 ft 422 kts 330°
2026-05-03 23:20 37.64303 -81.44376 38114 ft 421 kts 330°
2026-05-03 23:20 37.69809 -81.46892 38121 ft 420 kts 330°
2026-05-03 23:21 37.75307 -81.49407 38117 ft 420 kts 330°
2026-05-03 23:21 37.80800 -81.51925 38113 ft 419 kts 331°
2026-05-03 23:22 37.89056 -81.55729 38099 ft 420 kts 330°
2026-05-03 23:22 37.94557 -81.58258 38107 ft 421 kts 331°
2026-05-03 23:23 38.00038 -81.60779 38102 ft 421 kts 331°
2026-05-03 23:23 38.05534 -81.63322 38104 ft 420 kts 331°
2026-05-03 23:24 38.11032 -81.65873 38101 ft 421 kts 331°
2026-05-03 23:24 38.16541 -81.68423 38099 ft 421 kts 331°
2026-05-03 23:25 38.22044 -81.70972 38095 ft 420 kts 331°
2026-05-03 23:25 38.27547 -81.73535 38089 ft 421 kts 331°
2026-05-03 23:26 38.33012 -81.76080 38080 ft 421 kts 331°
2026-05-03 23:26 38.38756 -81.77987 38081 ft 431 kts 339°
2026-05-03 23:27 38.44637 -81.79512 38082 ft 430 kts 339°
2026-05-03 23:27 38.50514 -81.81038 38081 ft 430 kts 339°
2026-05-03 23:28 38.56380 -81.82576 38081 ft 430 kts 339°
2026-05-03 23:28 38.62206 -81.84101 38075 ft 430 kts 339°
2026-05-03 23:29 38.68079 -81.85646 38072 ft 430 kts 339°
2026-05-03 23:29 38.73942 -81.87181 38073 ft 430 kts 339°
2026-05-03 23:30 38.79813 -81.88719 38069 ft 430 kts 339°
2026-05-03 23:30 38.85675 -81.90269 38065 ft 430 kts 339°
2026-05-03 23:31 38.91501 -81.91817 38064 ft 430 kts 340°
2026-05-03 23:31 38.97357 -81.93365 38061 ft 430 kts 340°
2026-05-03 23:32 39.03214 -81.94917 38057 ft 429 kts 340°
2026-05-03 23:32 39.09072 -81.96469 38053 ft 429 kts 340°
2026-05-03 23:33 39.14923 -81.98022 38054 ft 429 kts 340°
2026-05-03 23:33 39.20771 -81.99581 38053 ft 429 kts 340°
2026-05-03 23:34 39.26617 -82.01154 38051 ft 429 kts 340°
2026-05-03 23:34 39.32457 -82.02719 38050 ft 428 kts 340°
2026-05-03 23:35 39.38252 -82.04259 38047 ft 427 kts 340°
2026-05-03 23:35 39.44078 -82.05821 38045 ft 427 kts 340°
2026-05-03 23:36 39.49901 -82.07389 38045 ft 427 kts 340°
2026-05-03 23:36 39.55717 -82.08961 38045 ft 427 kts 340°
2026-05-03 23:37 39.61527 -82.10537 38042 ft 427 kts 340°
2026-05-03 23:37 39.67334 -82.12100 38048 ft 425 kts 340°
2026-05-03 23:38 39.73125 -82.13656 38049 ft 424 kts 340°
2026-05-03 23:38 39.78977 -82.14659 38047 ft 436 kts 353°
2026-05-03 23:39 39.85084 -82.13701 38044 ft 444 kts
2026-05-03 23:39 39.91192 -82.12493 37472 ft 445 kts
2026-05-03 23:40 39.94280 -82.11888 36343 ft 451 kts 360°
2026-05-03 23:40 39.97388 -82.11279 35368 ft 452 kts 359°
2026-05-03 23:40 40.00492 -82.10666 34363 ft 452 kts 359°
2026-05-03 23:40 40.03603 -82.10048 33316 ft 452 kts 359°
2026-05-03 23:41 40.06705 -82.09436 32216 ft 449 kts 359°
2026-05-03 23:41 40.09757 -82.08836 30805 ft 450 kts 359°
2026-05-03 23:41 40.12855 -82.08203 29379 ft 450 kts 360°
2026-05-03 23:41 40.15945 -82.07580 27986 ft 448 kts 360°
2026-05-03 23:42 40.19012 -82.06980 26515 ft 444 kts
2026-05-03 23:42 40.22089 -82.06398 24551 ft 450 kts
2026-05-03 23:42 40.25201 -82.05821 23013 ft 449 kts
2026-05-03 23:42 40.28243 -82.05203 21739 ft 436 kts
2026-05-03 23:43 40.31237 -82.04572 20245 ft 434 kts
2026-05-03 23:43 40.34172 -82.03745 18943 ft 431 kts 11°
2026-05-03 23:43 40.36968 -82.02235 17570 ft 438 kts 22°
2026-05-03 23:43 40.39502 -82.00077 16454 ft 439 kts 31°
2026-05-03 23:44 40.41981 -81.97765 15385 ft 434 kts 31°
2026-05-03 23:44 40.44423 -81.95496 14386 ft 427 kts 31°
2026-05-03 23:44 40.46810 -81.93285 13994 ft 408 kts 31°
2026-05-03 23:44 40.49057 -81.91197 13769 ft 383 kts 31°
2026-05-03 23:45 40.51164 -81.89223 13394 ft 362 kts 31°
2026-05-03 23:45 40.53172 -81.87331 12840 ft 349 kts 31°
2026-05-03 23:45 40.55134 -81.85513 12179 ft 341 kts 31°
2026-05-03 23:45 40.57058 -81.83757 11552 ft 332 kts 31°
2026-05-03 23:46 40.58934 -81.82035 10938 ft 326 kts 31°
2026-05-03 23:46 40.60767 -81.80352 10456 ft 315 kts 31°
2026-05-03 23:46 40.62524 -81.78726 10031 ft 304 kts 32°
2026-05-03 23:46 40.64239 -81.77137 9923 ft 302 kts 32°
2026-05-03 23:47 40.65962 -81.75540 9585 ft 302 kts 32°
2026-05-03 23:47 40.67603 -81.73804 9161 ft 303 kts 44°
2026-05-03 23:47 40.68882 -81.71585 8824 ft 305 kts 60°
2026-05-03 23:47 40.69786 -81.69043 8608 ft 306 kts 66°
2026-05-03 23:48 40.70646 -81.66485 8368 ft 305 kts 65°
2026-05-03 23:48 40.71505 -81.63933 8125 ft 304 kts 65°
2026-05-03 23:48 40.72358 -81.61389 7880 ft 303 kts 65°
2026-05-03 23:48 40.73198 -81.58886 7649 ft 302 kts 65°
2026-05-03 23:49 40.74140 -81.56424 7398 ft 300 kts 55°
2026-05-03 23:49 40.75452 -81.54290 7157 ft 298 kts 44°
2026-05-03 23:49 40.76865 -81.52296 6930 ft 296 kts 44°
2026-05-03 23:49 40.78263 -81.50303 6689 ft 295 kts 45°
2026-05-03 23:50 40.79658 -81.48306 6446 ft 294 kts 45°
2026-05-03 23:50 40.80571 -81.46997 6259 ft 290 kts 45°
2026-05-03 23:50 40.82350 -81.44433 6079 ft 276 kts 45°
2026-05-03 23:50 40.83624 -81.42589 5963 ft 266 kts 45°
2026-05-03 23:51 40.84836 -81.40834 5741 ft 259 kts 45°
2026-05-03 23:51 40.86052 -81.39084 5341 ft 258 kts 44°
2026-05-03 23:51 40.87264 -81.37345 4964 ft 256 kts 44°
2026-05-03 23:51 40.88452 -81.35638 4750 ft 246 kts 45°
2026-05-03 23:52 40.89592 -81.34001 4502 ft 240 kts 44°
2026-05-03 23:52 40.90710 -81.32385 4204 ft 236 kts 45°
2026-05-03 23:52 40.91795 -81.30818 4067 ft 225 kts 44°
2026-05-03 23:52 40.92899 -81.29437 3813 ft 211 kts 26°
2026-05-03 23:53 40.94242 -81.28970 3549 ft 194 kts 355°
2026-05-03 23:53 40.95529 -81.29256 3220 ft 184 kts 333°
2026-05-03 23:53 40.96591 -81.30108 3021 ft 175 kts 312°
2026-05-03 23:53 40.97448 -81.31245 3002 ft 177 kts 315°
2026-05-03 23:54 40.98356 -81.32314 3004 ft 172 kts 298°
2026-05-03 23:54 40.98546 -81.33809 2996 ft 168 kts 257°
2026-05-03 23:54 40.97913 -81.35022 2888 ft 155 kts 225°
2026-05-03 23:54 40.97205 -81.36011 2727 ft 142 kts 231°
2026-05-03 23:55 40.96577 -81.36950 2560 ft 130 kts 229°
2026-05-03 23:55 40.95984 -81.37823 2393 ft 125 kts 228°
2026-05-03 23:55 40.95405 -81.38666 2234 ft 124 kts 227°
2026-05-03 23:55 40.94826 -81.39505 2066 ft 123 kts 228°
2026-05-03 23:56 40.94255 -81.40349 1890 ft 122 kts 228°
2026-05-03 23:56 40.93690 -81.41162 1753 ft 122 kts 227°
2026-05-03 23:56 40.93122 -81.41995 1590 ft 122 kts 229°
2026-05-03 23:56 40.92544 -81.42819 1431 ft 124 kts 229°
2026-05-03 23:57 40.91946 -81.43662 1280 ft 125 kts 227°
2026-05-03 23:57 40.91415 -81.44420 1223 ft 97 kts 227°
2026-05-03 23:57 40.91168 -81.44766 1220 ft 22 kts 226°
2026-05-03 23:57 40.91096 -81.44784 1221 ft 10 kts 138°
2026-05-03 23:58 40.91077 -81.44704 1222 ft 9 kts 93°
2026-05-03 23:58 40.91075 -81.44622 1223 ft 9 kts 91°
2026-05-03 23:58 40.91075 -81.44537 1223 ft 9 kts 89°
2026-05-03 23:58 40.91076 -81.44449 1223 ft 10 kts 90°
2026-05-03 23:59 40.91072 -81.44354 1223 ft 12 kts 96°
2026-05-03 23:59 40.91068 -81.44234 1222 ft 15 kts 91°
2026-05-03 23:59 40.91068 -81.44077 1219 ft 18 kts 89°
2026-05-03 23:59 40.91121 -81.43971 1223 ft 15 kts 18°
2026-05-04 00:00 40.91207 -81.43922 1223 ft 11 kts 62°
2026-05-04 00:00 40.91223 -81.43825 1223 ft 11 kts 57°
2026-05-04 00:00 40.91278 -81.43751 1223 ft 11 kts 31°
2026-05-04 00:00 40.91338 -81.43790 1223 ft 10 kts 317°
2026-05-04 00:01 40.91364 -81.43768 1223 ft 6 kts 94°
2026-05-04 00:01 40.91362 -81.43724 1223 ft 2 kts 93°